Gene Autry, OK

3:12 PM CDT on August 24, 2016 (GMT -0500)
Ardmore Municipal

Weather History for KADM - October, 2013

Change the Weather History Date:

Monday, October 21, 2013

  Actual Average Record
Temperature  
Mean Temperature 52 °F -  
Max Temperature 61 °F 71 °F 91 °F (2003)
Min Temperature 43 °F 52 °F 41 °F (2011)
Degree Days  
Heating Degree Days 14    
Growing Degree Days 2 (Base 50)    
Moisture  
Dew Point 48 °F    
Average Humidity 84    
Maximum Humidity 94    
Minimum Humidity 72    
Precipitation  
Precipitation 0.00 in - - ()
Sea Level Pressure  
Sea Level Pressure 29.97 in    
Wind  
Wind Speed 4 mph (ENE)    
Max Wind Speed 13 mph    
Max Gust Speed 18 mph    
Visibility 10 miles    
Events      
Averages and records for this station are not official NWS values.
T = Trace of Precipitation, MM = Missing Value Source: NWS Daily Summary

Daily Weather History Graph

Daily Weather History Graph

Search for Another Location

Airport or City:

Trip Planner

Search our weather history database for the weather conditions in past years. The results will help you decide how hot, cold, wet, or windy it might be!

Date:

Astronomy

Oct. 21, 2013 Rise Set
Actual Time 7:38 AM CDT 6:46 PM CDT
Civil Twilight 7:13 AM CDT 7:11 PM CDT
Nautical Twilight 6:43 AM CDT 7:40 PM CDT
Astronomical Twilight 6:14 AM CDT 8:09 PM CDT
Moon 8:46 PM CDT (10/21) 10:08 AM CDT (10/21)
Length of Visible Light 11h 58m
Length of Day
11h 07m
Waning Gibbous, 92% of the Moon is Illuminated
Oct 21
Waning Gibbous
Oct 26
Last Quarter
Nov 3
New
Nov 9
First Quarter
Nov 17
Full

Hourly Weather History & Observations

Time (CDT) Temp. Windchill Dew Point Humidity Pressure Visibility Wind Dir Wind Speed Gust Speed Precip Events Conditions
12:15 AM 54.0 °F - 47.5 °F 79% 29.90 in 10.0 mi East 5.8 mph - N/A   Clear
12:35 AM 53.2 °F - 47.3 °F 80% 29.90 in 10.0 mi East 4.6 mph - N/A   Clear
12:55 AM 53.6 °F - 47.5 °F 80% 29.91 in 10.0 mi East 4.6 mph - N/A   Clear
1:15 AM 53.8 °F - 47.8 °F 80% 29.91 in 10.0 mi East 4.6 mph - N/A   Clear
1:35 AM 53.8 °F - 47.8 °F 80% 29.91 in 10.0 mi East 6.9 mph - N/A   Clear
1:55 AM 54.1 °F - 48.2 °F 80% 29.92 in 10.0 mi East 4.6 mph - N/A   Clear
2:15 AM 54.0 °F - 47.8 °F 80% 29.92 in 10.0 mi East 4.6 mph - N/A   Clear
2:35 AM 52.9 °F - 47.7 °F 82% 29.93 in 10.0 mi ESE 3.5 mph - N/A   Clear
2:55 AM 52.7 °F - 47.5 °F 82% 29.94 in 10.0 mi Calm Calm - N/A   Clear
3:15 AM 52.2 °F - 47.7 °F 85% 29.94 in 10.0 mi Calm Calm - N/A   Clear
3:35 AM 51.8 °F - 47.5 °F 85% 29.94 in 10.0 mi SE 4.6 mph - N/A   Clear
3:55 AM 51.4 °F - 47.5 °F 86% 29.94 in 10.0 mi SE 4.6 mph - N/A   Clear
4:15 AM 51.3 °F - 47.3 °F 86% 29.94 in 10.0 mi SE 3.5 mph - N/A   Clear
4:35 AM 50.5 °F - 47.3 °F 89% 29.93 in 10.0 mi SE 3.5 mph - N/A   Clear
4:55 AM 50.5 °F - 47.3 °F 89% 29.94 in 10.0 mi ESE 3.5 mph - N/A   Clear
5:15 AM 50.2 °F - 47.3 °F 90% 29.95 in 10.0 mi East 3.5 mph - N/A   Clear
5:35 AM 48.7 °F - 46.8 °F 93% 29.96 in 10.0 mi Calm Calm - N/A   Clear
5:55 AM 48.6 °F - 46.9 °F 94% 29.96 in 10.0 mi NE 3.5 mph - N/A   Clear
6:15 AM 50.0 °F - 47.7 °F 92% 29.96 in 10.0 mi East 4.6 mph - N/A   Clear
6:35 AM 50.0 °F - 47.7 °F 92% 29.96 in 10.0 mi Calm Calm - N/A   Clear
6:55 AM 50.0 °F - 48.2 °F 94% 29.96 in 10.0 mi Calm Calm - N/A   Clear
7:55 AM 50.0 °F - 48.2 °F 94% 29.97 in 10.0 mi Calm Calm - N/A   Clear
8:55 AM 53.6 °F - 50.0 °F 88% 29.99 in 10.0 mi NE 3.5 mph - N/A   Mostly Cloudy
10:55 AM 57.2 °F - 51.8 °F 82% 30.00 in 10.0 mi NNE 5.8 mph - N/A   Overcast
11:55 AM 60.8 °F - 51.8 °F 72% 30.04 in 10.0 mi North 10.4 mph 18.4 mph N/A   Overcast
1:55 PM 60.8 °F - 53.6 °F 77% 30.04 in 10.0 mi NNE 12.7 mph - N/A   Mostly Cloudy
2:55 PM 59.0 °F - 50.0 °F 72% 30.04 in 10.0 mi NNE 12.7 mph - N/A   Mostly Cloudy
3:55 PM 57.2 °F - 50.0 °F 77% 30.06 in 10.0 mi NNE 9.2 mph - N/A   Overcast
7:55 PM 51.8 °F - 44.6 °F 76% 30.10 in 10.0 mi NNE 4.6 mph - N/A   Clear
11:35 PM 43.3 °F 40.7 °F 40.5 °F 90% 30.14 in 10.0 mi NNW 4.6 mph - N/A   Clear
11:55 PM 43.9 °F - 41.0 °F 90% 30.14 in 10.0 mi Calm Calm - N/A   Clear